User: anonymous   Login
Location: Kolin
(50.0330°N, 15.2000°E)
Time: 20:51:59
(UTC+02:00)
Language:

CUBESAT XI-V - Orbit

View from above orbital plane
View from above orbital plane
View from above satellite
View from above satellite

Ground track
Ground track

The orbit data is extracted from the following two-line orbital elements,

1 28895U 05043F   22225.29997249  .00000562  00000-0  11516-3 0  9998
2 28895  98.1137 355.8263 0015750 326.2373  33.7825 14.64422651895734
Epoch (UTC): 13 August 2022 07:11:57
Eccentricity: 0.0015750
inclination: 98.1137°
perigee height: 668 km
apogee height: 690 km
right ascension of ascending node: 355.8263°
argument of perigee: 326.2373°
revolutions per day: 14.64422651
mean anomaly at epoch: 33.7825°
orbit number at epoch: 89573

The dashed part of the orbit path shows where the satellite is in the earth's shadow,  

DLR